User: anonymous   Login
Location: Unspecified
(0.0000°N, 0.0000°E)
Time: 03:23:00
(UTC+00:00)
Language:

STARLINK-2512 - Orbit

View from above orbital plane
View from above orbital plane
View from above satellite
View from above satellite

Ground track
Ground track

The orbit is defined by the following mean orbital elements,

1 48319U          26145.30830362 +.00000000 +00000-0 +32780-4 0 00005
2 48319  53.1596 104.7836 0001431  99.3590 260.7573 15.31702635    02
Epoch (UTC): 25 May 2026 07:23:57
Eccentricity: 0.0001431
inclination: 53.1596°
perigee height: 470 km
apogee height: 472 km
right ascension of ascending node: 104.7836°
argument of perigee: 99.3590°
revolutions per day: 15.31702635
mean anomaly at epoch: 260.7573°

The dashed part of the orbit path shows where the satellite is in the earth's shadow,  

DLR